Santa Maria, CA

1:36 AM PDT on October 20, 2018 (GMT -0700)
Santa Maria Public Airport / Captain G. Allan Hancock Field

Weather History for KSMX - February, 2017

Change the Weather History Date:

Friday, February 17, 2017

  Actual Average Record
Temperature  
Mean Temperature 54 °F 53 °F  
Max Temperature 58 °F 64 °F 89 °F (1930)
Min Temperature 49 °F 42 °F 24 °F (1956)
Degree Days  
Heating Degree Days 11 12  
Month to date heating degree days 147 212  
Since 1 July heating degree days 1554 1704  
Cooling Degree Days 0 0  
Month to date cooling degree days 0 0  
Year to date cooling degree days 0 0  
Growing Degree Days 4 (Base 50)    
Moisture  
Dew Point 54 °F    
Average Humidity 93    
Maximum Humidity 100    
Minimum Humidity 86    
Precipitation  
Precipitation 1.98 in 0.11 in 1.98 in (2017)
Month to date precipitation 4.65 1.78  
Year to date precipitation 10.49 4.53  
Sea Level Pressure  
Sea Level Pressure 29.41 in    
Wind  
Wind Speed 17 mph (SSE)    
Max Wind Speed 41 mph    
Max Gust Speed 57 mph    
Visibility 4 miles    
Events Rain    
T = Trace of Precipitation, MM = Missing Value Source: NWS Daily Summary

Daily Weather History Graph

Daily Weather History Graph

Search for Another Location

Airport or City:

Astronomy

Feb. 17, 2017 Rise Set
Actual Time 6:45 AM PST 5:47 PM PST
Civil Twilight 6:19 AM PST 6:12 PM PST
Nautical Twilight 5:49 AM PST 6:42 PM PST
Astronomical Twilight 5:20 AM PST 7:11 PM PST
Moon No Moon Rise 10:42 AM PST (2/17)
Length of Visible Light 11h 53m
Length of Day
11h 01m
Waning Gibbous, 59% of the Moon is Illuminated
Feb 17
Waning Gibbous
Feb 18
Last Quarter
Feb 26
New
Mar 5
First Quarter
Mar 12
Full

Hourly Weather History & Observations

Time (PST) Temp. Dew Point Humidity Pressure Visibility Wind Dir Wind Speed Gust Speed Precip Events Conditions
12:51 AM 53.1 °F 53.1 °F 100% 29.77 in 7.0 mi SE 3.5 mph - 0.05 in Rain Light Rain
1:51 AM 53.1 °F 53.1 °F 100% 29.77 in 6.0 mi North - - 0.01 in Rain Light Rain
2:51 AM 53.1 °F 53.1 °F 100% 29.72 in 5.0 mi East 6.9 mph - 0.06 in Rain Rain
3:51 AM 55.9 °F 54.0 °F 93% 29.68 in 9.0 mi SE 10.4 mph - 0.04 in Rain Light Rain
4:51 AM 55.9 °F 54.0 °F 93% 29.61 in 7.0 mi SE 11.5 mph - 0.04 in Rain Light Rain
5:29 AM 57.0 °F 54.0 °F 89% 29.55 in 5.0 mi SSE 23.0 mph 31.1 mph 0.05 in Rain Rain
5:49 AM 55.4 °F 53.6 °F 94% 29.56 in 4.0 mi SSE 21.9 mph 33.4 mph 0.11 in Rain Heavy Rain
5:51 AM 55.9 °F 53.1 °F 90% 29.57 in 4.0 mi SSE 20.7 mph 33.4 mph 0.12 in Rain Rain
6:51 AM 54.0 °F 51.1 °F 90% 29.51 in 5.0 mi SE 27.6 mph 34.5 mph 0.09 in Rain Rain
7:51 AM 55.0 °F 52.0 °F 89% 29.50 in 3.0 mi SSE 29.9 mph 38.0 mph 0.11 in Rain Rain
8:02 AM 55.0 °F 52.0 °F 89% 29.49 in 2.5 mi SSE 25.3 mph 39.1 mph 0.03 in Rain Rain
8:51 AM 55.0 °F 53.1 °F 93% 29.47 in 2.5 mi SE 26.5 mph 38.0 mph 0.19 in Rain Rain
9:51 AM 55.0 °F 53.1 °F 93% 29.45 in 2.0 mi SE 23.0 mph 32.2 mph 0.20 in Rain Heavy Rain
10:29 AM 55.0 °F 53.1 °F 93% 29.44 in 1.5 mi SE 21.9 mph 34.5 mph 0.19 in Rain Heavy Rain
10:51 AM 55.9 °F 54.0 °F 93% 29.37 in 1.8 mi SE 34.5 mph 46.0 mph 0.32 in Rain Heavy Rain
11:03 AM 55.9 °F 54.0 °F 93% 29.37 in 2.0 mi SE 31.1 mph 56.4 mph 0.05 in Rain Rain
11:51 AM 57.0 °F 54.0 °F 89% 29.38 in 3.0 mi SSE 24.2 mph 38.0 mph 0.16 in Rain Rain
12:01 PM 57.0 °F 54.0 °F 89% 29.34 in 2.5 mi SE 25.3 mph 41.4 mph 0.03 in Rain Rain
12:26 PM 55.9 °F 54.0 °F 93% 29.33 in 1.5 mi SE 29.9 mph 40.3 mph 0.12 in Rain Heavy Rain
12:33 PM 55.9 °F 55.0 °F 97% 29.34 in 1.2 mi SE 19.6 mph 36.8 mph 0.16 in Rain Heavy Rain
12:51 PM 55.9 °F 55.0 °F 97% 29.31 in 3.0 mi SE 20.7 mph - 0.24 in Rain Rain
1:51 PM 57.9 °F 55.0 °F 90% 29.26 in 4.0 mi SE 23.0 mph 34.5 mph 0.03 in Rain Rain
2:15 PM 57.9 °F 55.0 °F 90% 29.26 in 1.8 mi SSE 20.7 mph 38.0 mph 0.03 in Rain Rain
2:21 PM 57.0 °F 55.0 °F 93% 29.28 in 1.8 mi South 17.3 mph 35.7 mph 0.04 in Rain Rain
2:30 PM 57.0 °F 55.9 °F 96% 29.26 in 1.0 mi SSE 23.0 mph 32.2 mph 0.11 in Rain Rain
2:36 PM 57.0 °F 55.0 °F 93% 29.27 in 2.0 mi SSE 21.9 mph 32.2 mph 0.12 in Rain Rain
2:43 PM 57.0 °F 55.0 °F 93% 29.27 in 1.2 mi SSE 25.3 mph 35.7 mph 0.14 in Rain Heavy Rain
2:51 PM 57.0 °F 55.9 °F 96% 29.28 in 1.0 mi SSE 25.3 mph 33.4 mph 0.18 in Rain Rain
3:06 PM 57.0 °F 55.9 °F 96% 29.27 in 1.5 mi South 16.1 mph 28.8 mph 0.06 in Rain Rain
3:14 PM 57.0 °F 55.9 °F 96% 29.27 in 3.0 mi South 11.5 mph - 0.07 in Rain Light Rain
3:36 PM 57.0 °F 55.0 °F 93% 29.28 in 2.5 mi South 16.1 mph - 0.09 in Rain Light Rain
3:44 PM 57.0 °F 55.0 °F 93% 29.29 in 4.0 mi South 17.3 mph 24.2 mph 0.09 in Rain Light Rain
3:51 PM 57.0 °F 55.0 °F 93% 29.30 in 6.0 mi South 13.8 mph 25.3 mph 0.10 in Rain Light Rain
4:16 PM 57.0 °F 55.0 °F 93% 29.28 in 2.5 mi South 15.0 mph 26.5 mph 0.00 in Rain Light Rain
4:24 PM 55.9 °F 55.0 °F 97% 29.29 in 2.5 mi South 13.8 mph 25.3 mph 0.01 in Rain Light Rain
4:51 PM 55.9 °F 54.0 °F 93% 29.29 in 5.0 mi South 13.8 mph 21.9 mph 0.03 in   Overcast
5:04 PM 55.0 °F 54.0 °F 96% 29.29 in 5.0 mi South 12.7 mph - 0.00 in   Mostly Cloudy
5:51 PM 55.0 °F 52.0 °F 89% 29.33 in 5.0 mi SSE 9.2 mph - 0.00 in   Overcast
6:51 PM 54.0 °F 53.1 °F 97% 29.36 in 10.0 mi SSE 5.8 mph - N/A   Overcast
7:51 PM 53.1 °F 52.0 °F 96% 29.38 in 10.0 mi South 4.6 mph - N/A   Mostly Cloudy
8:51 PM 53.1 °F 52.0 °F 96% 29.39 in 10.0 mi SSE 6.9 mph - N/A   Overcast
9:51 PM 52.0 °F 52.0 °F 100% 29.42 in 9.0 mi SSE 10.4 mph - 0.00 in   Overcast
10:08 PM 53.1 °F 52.0 °F 96% 29.41 in 4.0 mi South 8.1 mph - 0.00 in Rain Light Rain
10:19 PM 52.0 °F 52.0 °F 100% 29.42 in 2.5 mi South 5.8 mph - 0.01 in Rain Light Rain
10:26 PM 51.8 °F 51.8 °F 100% 29.42 in 3.0 mi SSE 9.2 mph - N/A Rain Light Rain
10:36 PM 52.0 °F 52.0 °F 100% 29.42 in 5.0 mi SSE 6.9 mph - 0.02 in Rain Light Rain
10:51 PM 52.0 °F 52.0 °F 100% 29.43 in 10.0 mi SE 4.6 mph - 0.02 in   Overcast
11:51 PM 48.9 °F 48.9 °F 100% 29.43 in 10.0 mi ESE 8.1 mph - N/A   Clear